Terminal Aerodrome Forecast
Issued by NWS

Current Version | Previous Version | Text Only | Print | Product List | Glossary Off
Versions: 1 2 3 4 5 6 7 8 9 10 11 12 13 14 15

000
FTUS41 KILN 200500
TAFLCK
TAF
KLCK 200520Z 2006/2106 00000KT P6SM OVC018
      TEMPO 2009/2013 5SM BR
     FM201700 00000KT P6SM OVC025=

USA.gov is the U.S. government's official web portal to all federal, state and local government web resources and services.